Tracking 18843 objects as of 21-November-2017
HD Live streaming from Space Station
objects crossing your sky now

COSMOS 2251 DEB

Track COSMOS 2251 DEB now!
10-day predictions


NORAD ID: 37326
Int'l Code: 1993-036BKS
Perigee: 681.2 km
Apogee: 778.7 km
Inclination: 74.0 °
Period: 99.3 minutes
Semi major axis: 7100 km
RCS: 0.0127 m2 (small)
Launch date: June 16, 1993
Source: Commonwealth of Independent States (former USSR) (CIS)
Launch site: PLESETSK MISSILE AND SPACE COMPLEX (PKMTR)

Note: This is SATELLITE DEBRIS
aabbcc
Your satellite tracking list
Your tracking list is empty




NASA's NSSDC Master Catalog

Two Line Element Set (TLE):
1 37326U 93036BKS 17321.91817755 +.00000363 +00000-0 +96773-4 0  9997
2 37326 074.0266 142.0582 0068677 282.8420 076.5074 14.50862803426716
Source of the keplerian elements: AFSPC